When you browse on this site, cookies collect data to enhance your experience and personalize the content and advertising you see.
Visit our Privacy Policy to learn more. By continuing to use the site, you agree to this use of cookies and data.
  • în România
  • Lista ţărilor
  • Pe 7 zile
  • Temperatura apei
  • Meteo pe hartă
  • Widget-uri
  • user-avatar
    Intrare

    Meteo pe oră la Omagh

    Astăzi, 22 Februarie, Sâmbătă

    Timp Temperatura Precipitaţii Vânt Presiune Umiditate
    00:00 +6°C° 0 mm 8 m/s 742 mmHg 86%
    01:00 +5°C° 0.5 mm 8 m/s 742 mmHg 86%
    02:00 +4°C° 0.5 mm 7 m/s 743 mmHg 87%
    03:00 +3°C° 0.5 mm 6 m/s 743 mmHg 88%
    04:00 +2°C° 0.2 mm 6 m/s 744 mmHg 87%
    05:00 +2°C° 0.2 mm 6 m/s 745 mmHg 86%
    06:00 +1°C° 0.2 mm 5 m/s 745 mmHg 85%
    07:00 +1°C° 0.1 mm 6 m/s 746 mmHg 83%
    08:00 +1°C° 0.1 mm 6 m/s 746 mmHg 82%
    09:00 +1°C° 0.1 mm 6 m/s 747 mmHg 81%
    10:00 0°C° 0.2 mm 7 m/s 748 mmHg 79%
    11:00 +1°C° 0.2 mm 8 m/s 749 mmHg 76%
    12:00 +1°C° 0.2 mm 9 m/s 750 mmHg 74%
    13:00 +1°C° 0.2 mm 9 m/s 750 mmHg 75%
    14:00 +1°C° 0.2 mm 8 m/s 751 mmHg 76%
    15:00 +1°C° 0.2 mm 8 m/s 751 mmHg 76%
    16:00 0°C° 0.2 mm 7 m/s 751 mmHg 80%
    17:00 +1°C° 0.2 mm 6 m/s 752 mmHg 84%
    18:00 -1°C° 0.2 mm 6 m/s 752 mmHg 88%
    19:00 +1°C° 0.3 mm 5 m/s 752 mmHg 91%
    20:00 +1°C° 0.3 mm 5 m/s 752 mmHg 93%
    21:00 +1°C° 0.3 mm 4 m/s 752 mmHg 95%
    22:00 +1°C° 0.5 mm 4 m/s 752 mmHg 96%
    23:00 +1°C° 0.5 mm 4 m/s 752 mmHg 96%

    Mâine, 23 Februarie, Duminică

    Timp Temperatura Precipitaţii Vânt Presiune Umiditate
    00:00 +1°C° 0.5 mm 4 m/s 752 mmHg 97%
    01:00 +2°C° 0.9 mm 3 m/s 750 mmHg 97%
    02:00 +3°C° 0.9 mm 2 m/s 749 mmHg 98%
    03:00 +4°C° 0.9 mm 1 m/s 748 mmHg 98%
    04:00 +3°C° 1 mm 2 m/s 748 mmHg 98%
    05:00 +2°C° 1 mm 3 m/s 749 mmHg 98%
    06:00 +1°C° 1 mm 3 m/s 749 mmHg 97%
    07:00 +1°C° 0.2 mm 3 m/s 750 mmHg 94%
    08:00 0°C° 0.2 mm 4 m/s 751 mmHg 91%
    09:00 0°C° 0.2 mm 4 m/s 752 mmHg 88%
    10:00 +1°C° 0 mm 4 m/s 753 mmHg 82%
    11:00 +2°C° 0 mm 5 m/s 754 mmHg 77%
    12:00 +3°C° 0 mm 6 m/s 755 mmHg 71%
    13:00 +3°C° 0 mm 5 m/s 756 mmHg 69%
    14:00 +3°C° 0 mm 5 m/s 756 mmHg 67%
    15:00 +4°C° 0 mm 4 m/s 756 mmHg 65%
    16:00 +3°C° 0 mm 3 m/s 757 mmHg 70%
    17:00 +3°C° 0 mm 2 m/s 757 mmHg 75%
    18:00 +2°C° 0 mm 2 m/s 757 mmHg 80%
    19:00 +2°C° 0 mm 2 m/s 757 mmHg 81%
    20:00 +2°C° 0 mm 2 m/s 756 mmHg 82%
    21:00 +2°C° 0 mm 2 m/s 756 mmHg 83%
    22:00 -1°C° 2 mm 4 m/s 754 mmHg 88%
    23:00 -1°C° 2 mm 5 m/s 752 mmHg 93%

    Poimâine, 24 Februarie, Luni

    Timp Temperatura Precipitaţii Vânt Presiune Umiditate
    00:00 -2°C° 2 mm 6 m/s 751 mmHg 98%
    01:00 -1°C° 4.6 mm 6 m/s 748 mmHg 99%
    02:00 +1°C° 4.6 mm 6 m/s 745 mmHg 99%
    03:00 +2°C° 4.6 mm 6 m/s 743 mmHg 99%
    04:00 +3°C° 0.9 mm 6 m/s 741 mmHg 99%
    05:00 +4°C° 0.9 mm 6 m/s 739 mmHg 98%
    06:00 +5°C° 0.9 mm 6 m/s 737 mmHg 98%
    07:00 +5°C° 0 mm 7 m/s 737 mmHg 96%
    08:00 +5°C° 0 mm 8 m/s 737 mmHg 94%
    09:00 +3°C° 0 mm 9 m/s 736 mmHg 93%
    10:00 +3°C° 0.1 mm 9 m/s 737 mmHg 91%
    11:00 +2°C° 0.1 mm 10 m/s 738 mmHg 89%
    12:00 +1°C° 0.1 mm 10 m/s 739 mmHg 88%
    13:00 +1°C° 0.3 mm 10 m/s 740 mmHg 88%
    14:00 +2°C° 0.3 mm 10 m/s 740 mmHg 88%
    15:00 +2°C° 0.3 mm 10 m/s 741 mmHg 88%
    16:00 +1°C° 0.1 mm 9 m/s 741 mmHg 87%
    17:00 +1°C° 0.1 mm 9 m/s 742 mmHg 86%
    18:00 0°C° 0.1 mm 8 m/s 743 mmHg 85%
    19:00 0°C° 0.1 mm 7 m/s 743 mmHg 86%
    20:00 0°C° 0.1 mm 7 m/s 743 mmHg 87%
    21:00 +1°C° 0.1 mm 6 m/s 744 mmHg 88%
    22:00 -1°C° 0 mm 6 m/s 744 mmHg 87%
    23:00 0°C° 0 mm 5 m/s 744 mmHg 86%

    25 Februarie, Marţi

    Timp Temperatura Precipitaţii Vânt Presiune Umiditate
    00:00 0°C° 0 mm 5 m/s 744 mmHg 85%
    01:00 0°C° 0 mm 4 m/s 743 mmHg 85%
    02:00 0°C° 0 mm 4 m/s 743 mmHg 85%
    03:00 -1°C° 0 mm 4 m/s 743 mmHg 85%
    04:00 -1°C° 0.1 mm 4 m/s 743 mmHg 86%
    05:00 -1°C° 0.1 mm 4 m/s 743 mmHg 86%
    06:00 -1°C° 0.1 mm 4 m/s 742 mmHg 87%
    07:00 0°C° 0 mm 4 m/s 742 mmHg 87%
    08:00 0°C° 0 mm 4 m/s 742 mmHg 86%
    09:00 +1°C° 0 mm 3 m/s 742 mmHg 86%
    10:00 +1°C° 0.2 mm 4 m/s 742 mmHg 87%
    11:00 +1°C° 0.2 mm 4 m/s 741 mmHg 87%
    12:00 +2°C° 0.2 mm 5 m/s 741 mmHg 88%
    13:00 +2°C° 0.5 mm 5 m/s 741 mmHg 86%
    14:00 +2°C° 0.5 mm 6 m/s 741 mmHg 84%
    15:00 +1°C° 0.5 mm 6 m/s 740 mmHg 82%
    16:00 +1°C° 0.2 mm 5 m/s 740 mmHg 84%
    17:00 0°C° 0.2 mm 5 m/s 740 mmHg 85%
    18:00 -1°C° 0.2 mm 4 m/s 740 mmHg 87%
    19:00 -2°C° 0.1 mm 4 m/s 741 mmHg 87%
    20:00 -2°C° 0.1 mm 4 m/s 741 mmHg 88%
    21:00 -2°C° 0.1 mm 3 m/s 741 mmHg 88%
    22:00 -2°C° 0.1 mm 4 m/s 742 mmHg 88%
    23:00 -2°C° 0.1 mm 4 m/s 742 mmHg 87%

    26 Februarie, Miercuri

    Timp Temperatura Precipitaţii Vânt Presiune Umiditate
    00:00 -2°C° 0.1 mm 4 m/s 743 mmHg 86%
    01:00 -2°C° 0.1 mm 4 m/s 743 mmHg 86%
    02:00 -2°C° 0.1 mm 4 m/s 744 mmHg 86%
    03:00 -2°C° 0.1 mm 4 m/s 744 mmHg 86%
    04:00 -2°C° 0.1 mm 4 m/s 745 mmHg 85%
    05:00 -2°C° 0.1 mm 4 m/s 746 mmHg 84%
    06:00 -1°C° 0.1 mm 4 m/s 747 mmHg 83%
    07:00 -1°C° 0 mm 5 m/s 747 mmHg 81%
    08:00 0°C° 0 mm 5 m/s 748 mmHg 80%
    09:00 0°C° 0 mm 5 m/s 749 mmHg 78%
    10:00 +1°C° 0.1 mm 5 m/s 749 mmHg 75%
    11:00 +2°C° 0.1 mm 6 m/s 750 mmHg 72%
    12:00 +3°C° 0.1 mm 6 m/s 751 mmHg 69%
    13:00 +2°C° 0.1 mm 5 m/s 751 mmHg 71%
    14:00 +2°C° 0.1 mm 5 m/s 751 mmHg 74%
    15:00 +3°C° 0.1 mm 4 m/s 751 mmHg 76%
    16:00 +2°C° 0.1 mm 3 m/s 750 mmHg 82%
    17:00 +2°C° 0.1 mm 3 m/s 750 mmHg 87%
    18:00 +2°C° 0.1 mm 2 m/s 750 mmHg 93%
    19:00 +1°C° 0 mm 2 m/s 749 mmHg 93%
    20:00 +1°C° 0 mm 2 m/s 749 mmHg 93%
    21:00 +1°C° 0 mm 2 m/s 748 mmHg 93%
    22:00 0°C° 0.2 mm 3 m/s 747 mmHg 94%
    23:00 0°C° 0.2 mm 3 m/s 745 mmHg 96%

    27 Februarie, Joi

    Timp Temperatura Precipitaţii Vânt Presiune Umiditate
    00:00 -1°C° 0.2 mm 4 m/s 744 mmHg 97%
    01:00 -1°C° 1 mm 5 m/s 742 mmHg 97%
    02:00 -1°C° 1 mm 5 m/s 740 mmHg 98%
    03:00 -2°C° 1 mm 6 m/s 738 mmHg 98%
    04:00 0°C° 1.6 mm 5 m/s 737 mmHg 98%
    05:00 0°C° 1.6 mm 4 m/s 736 mmHg 99%
    06:00 +2°C° 1.6 mm 3 m/s 735 mmHg 99%
    07:00 +3°C° 0.3 mm 3 m/s 735 mmHg 99%
    08:00 +4°C° 0.3 mm 2 m/s 735 mmHg 99%
    09:00 +5°C° 0.3 mm 1 m/s 735 mmHg 99%
    10:00 +4°C° 0 mm 3 m/s 735 mmHg 98%
    11:00 +5°C° 0 mm 4 m/s 736 mmHg 96%
    12:00 +5°C° 0 mm 6 m/s 736 mmHg 95%
    13:00 +5°C° 0 mm 6 m/s 737 mmHg 93%
    14:00 +5°C° 0 mm 6 m/s 738 mmHg 90%
    15:00 +5°C° 0 mm 6 m/s 738 mmHg 88%
    16:00 +5°C° 0.1 mm 5 m/s 739 mmHg 90%
    17:00 +3°C° 0.1 mm 5 m/s 740 mmHg 92%
    18:00 +3°C° 0.1 mm 4 m/s 740 mmHg 93%
    19:00 +3°C° 0.1 mm 3 m/s 741 mmHg 94%
    20:00 +2°C° 0.1 mm 3 m/s 742 mmHg 94%
    21:00 +2°C° 0.1 mm 3 m/s 743 mmHg 95%
    22:00 +2°C° 0 mm 2 m/s 743 mmHg 95%
    23:00 +1°C° 0 mm 2 m/s 744 mmHg 95%
    Arată mai mult